Location: Cahas Mountain Overlook
(37.0833°N, 80.1000°W)
Time: 01:23:40
(UTC-05:00)

Transit 2A - All Passes

Search period start: 29 November 2023 00:00
Search period end: 09 December 2023 00:00
Orbit: 600 x 953 km, 66.7° (Epoch: 28 November)

Date Brightness Start Highest point End Pass type
(mag) Time Alt. Az. Time Alt. Az. Time Alt. Az.
29 Nov - 02:05:42 10° NNW 02:09:56 52° ENE 02:14:18 10° SE night (unlit)
29 Nov - 03:50:48 10° W 03:52:31 12° WSW 03:54:17 10° SW night (unlit)
29 Nov - 16:42:14 10° SSW 16:47:36 79° ESE 16:52:27 10° NNE daylight
29 Nov - 18:28:39 10° WNW 18:31:07 13° NW 18:33:30 10° NNW visible
30 Nov - 01:31:02 10° N 01:34:57 32° ENE 01:38:58 10° ESE night (unlit)
30 Nov - 03:14:34 10° WNW 03:17:47 20° WSW 03:21:05 10° SSW night (unlit)
30 Nov - 16:07:32 10° S 16:12:43 50° ESE 16:17:26 10° NE daylight
30 Nov - 17:52:16 10° W 17:55:59 20° NW 17:59:29 10° N visible
01 Dec - 00:56:33 10° N 00:59:55 21° NE 01:03:18 10° ESE night (unlit)
01 Dec - 02:39:05 10° NW 02:43:00 33° WSW 02:47:01 10° S night (unlit)
01 Dec - 15:33:09 10° S 15:37:52 32° ESE 15:42:12 10° NE daylight
01 Dec - 17:16:25 10° WSW 17:20:55 29° NW 17:25:05 10° N daylight
02 Dec - 00:22:26 10° NNE 00:24:47 14° NE 00:27:09 10° E night (unlit)
02 Dec - 02:03:54 10° NW 02:08:09 55° WSW 02:12:34 10° SSE night (unlit)
02 Dec - 14:59:11 10° SSE 15:03:02 21° ESE 15:06:42 10° ENE daylight
02 Dec - 16:40:55 10° SW 16:45:55 43° WNW 16:50:29 10° NNE daylight
03 Dec - 01:28:55 10° NNW 01:33:17 88° ENE 01:37:47 10° SSE night (unlit)
03 Dec - 14:25:59 10° SE 14:28:17 13° ESE 14:30:31 10° E daylight
03 Dec - 16:05:41 10° SW 16:10:57 67° WNW 16:15:44 10° NNE daylight
04 Dec - 00:54:06 10° NNW 00:58:21 53° ENE 01:02:44 10° SE night (unlit)
04 Dec - 02:39:11 10° W 02:40:56 12° WSW 02:42:44 10° SW night (unlit)
04 Dec - 15:30:44 10° SSW 15:36:02 79° ESE 15:40:51 10° NNE daylight
04 Dec - 17:17:12 10° WNW 17:19:34 13° NW 17:21:50 10° NNW daylight
05 Dec - 00:19:25 10° N 00:23:22 33° ENE 00:27:24 10° ESE night (unlit)
05 Dec - 02:02:58 10° WNW 02:06:12 20° WSW 02:09:31 10° SSW night (unlit)
05 Dec - 14:56:02 10° S 15:01:09 50° ESE 15:05:49 10° NE daylight
05 Dec - 16:40:47 10° W 16:44:25 19° NW 16:47:51 10° N daylight
05 Dec - 23:44:56 10° N 23:48:19 21° NE 23:51:44 10° ESE night (unlit)
06 Dec - 01:27:29 10° NW 01:31:23 33° WSW 01:35:28 10° S night (unlit)
06 Dec - 14:21:39 10° S 14:26:18 32° ESE 14:30:35 10° NE daylight
06 Dec - 16:04:56 10° WSW 16:09:21 28° NW 16:13:27 10° N daylight
06 Dec - 23:10:48 10° NNE 23:13:11 14° NE 23:15:35 10° E night (unlit)
07 Dec - 00:52:17 10° NW 00:56:33 55° WSW 01:01:00 10° SSE night (unlit)
07 Dec - 13:47:40 10° SSE 13:51:29 20° ESE 13:55:04 10° ENE daylight
07 Dec - 15:29:24 10° SW 15:34:20 43° WNW 15:38:51 10° NNE daylight
08 Dec - 00:17:18 10° NNW 00:21:40 88° ENE 00:26:13 10° SSE night (unlit)
08 Dec - 13:14:30 10° SE 13:16:42 13° ESE 13:18:50 10° E daylight
08 Dec - 14:54:10 10° SW 14:59:22 67° WNW 15:04:06 10° NNE daylight
08 Dec - 23:42:28 10° NNW 23:46:44 53° ENE 23:51:10 10° SE night (unlit)
